Theta_e
278 278 277 278 278 278 278 277 277 278 278 278 278 278 278 278 277 276 276 276 276 276 276 276 276 276 275 274 275 275 274 275 272 274 275 276 275 275 276 276 277 277 277
278 278 278 278 278 277 277 277 278 278 278 278 278 278 278 278 277 277 276 276 276 275 276 276 275 277 275 275 275 274 274 274 273 272 274 274 274 275 275 275 276 278 277
278 277 277 277 277 277 277 278 278 276 276 277 278 278 277 278 277 277 276 276 276 276 276 275 275 275 275 275 274 274 274 275 274 273 273 275 275 275 275 275 275 276 277
277 277 277 277 277 277 277 277 278 277 274 272 272 274 274 274 277 276 278 277 276 276 277 276 276 275 275 275 275 275 275 274 274 273 273 273 274 275 275 273 273 275 275
277 277 277 277 277 277 277 277 277 277 277 273 272 270 270 272 275 273 276 275 275 276 276 277 277 277 279 279 278 276 275 274 274 274 274 274 274 273 272 274 273 273 273
276 277 277 277 277 277 278 277 277 277 277 277 273 272 270 275 280 282 281 276 277 276 276 277 277 276 277 282 282 283 282 279 276 275 274 274 275 276 276 274 273 271 269
275 276 276 276 276 275 276 276 275 274 274 273 271 270 267 270 279 281 281 277 274 272 273 275 275 277 276 276 279 280 280 280 281 279 277 277 276 277 276 274 273 272 271
272 272 273 273 273 272 271 271 270 270 268 267 266 265 263 268 278 279 280 271 268 268 269 270 271 272 273 275 275 276 276 276 275 276 276 275 276 276 276 275 273 273 273
269 269 270 271 270 270 269 267 266 266 264 263 265 263 263 263 275 277 276 268 268 266 267 268 269 269 275 278 277 275 275 275 279 281 281 281 282 282 281 278 274 271 269
266 267 268 268 268 266 267 266 266 264 263 265 264 263 262 261 272 276 276 270 264 265 264 266 274 274 277 278 275 275 273 273 274 275 275 276 277 276 279 277 275 273 273
264 265 265 266 266 266 265 265 263 262 262 261 263 263 263 261 264 274 275 270 269 268 264 265 267 274 276 277 278 275 274 276 275 272 272 272 273 273 271 271 272 272 270
262 262 262 264 266 265 264 264 263 262 262 262 262 263 263 261 268 271 273 273 273 269 267 269 269 275 276 276 275 275 276 274 268 267 267 267 269 270 269 269 270 271 272
260 259 260 262 263 264 263 261 261 261 261 261 261 258 260 264 262 269 270 272 272 270 269 271 274 274 272 269 270 271 269 264 264 263 263 265 267 268 264 262 262 261 262
258 259 259 259 260 260 261 262 261 259 257 261 261 259 258 260 261 264 266 268 270 269 270 268 268 267 266 266 262 263 262 261 261 260 261 263 265 265 263 260 264 260 260
258 258 259 259 259 258 259 260 262 261 263 261 259 261 258 260 263 269 269 268 268 269 269 258 258 259 259 259 259 259 259 259 259 260 261 259 260 261 262 258 258 257 256
258 258 258 257 257 257 257 257 262 264 266 267 267 266 265 267 269 270 270 270 271 271 258 250 256 256 256 256 256 256 257 257 258 259 258 259 259 260 261 261 257 254 257
256 257 256 256 256 255 254 254 253 256 261 263 264 265 266 267 267 268 268 269 269 265 249 253 254 254 254 255 255 255 255 257 258 258 258 258 259 259 259 258 257 257 256
253 254 253 253 252 252 252 252 251 250 250 252 257 261 263 264 265 266 266 265 253 253 248 252 251 252 253 253 254 254 255 255 256 255 256 257 257 258 256 256 256 256 255
253 251 249 248 248 249 249 248 248 246 247 249 250 254 255 260 261 263 263 249 248 252 251 250 250 251 252 252 253 254 254 255 255 255 255 256 256 255 255 255 256 256 255
245 250 247 245 244 245 245 245 246 244 246 247 248 249 250 250 249 253 250 245 245 249 251 249 251 252 252 253 253 253 254 254 254 254 255 256 256 256 255 256 256 256 256
246 246 246 243 242 242 242 242 244 245 246 246 248 250 258 256 253 250 250 250 247 250 251 252 252 252 253 253 253 253 254 254 254 255 255 255 255 255 256 256 256 256 256
243 242 241 240 243 243 242 243 244 244 246 246 247 248 256 250 250 250 250 250 251 250 251 251 252 252 253 253 254 254 254 254 255 255 255 255 256 256 256 255 255 255 255
242 241 242 241 242 243 243 242 243 244 245 246 246 247 248 249 249 249 249 250 250 251 251 251 251 252 253 254 255 255 255 255 256 257 256 256 255 255 255 255 255 254 254
240 240 241 242 240 241 241 242 242 244 245 246 246 247 248 248 248 248 249 250 250 251 251 252 252 252 254 255 256 257 257 257 257 257 257 256 255 255 255 255 255 255 254
238 240 240 241 240 241 242 241 242 243 244 245 245 246 247 247 248 248 249 250 250 250 251 252 253 254 255 255 255 256 256 257 256 256 256 256 256 256 255 255 255 255 254
241 241 242 242 241 241 240 241 242 243 243 244 245 245 246 247 247 248 248 249 249 250 251 252 253 254 254 255 255 256 257 259 258 258 258 258 258 258 258 256 255 255 254
Wind_Speed
9 7 7 7 7 7 6 7 7 6 6 6 6 6 6 5 3 2 2 3 1 4 4 4 5 3 3 3 3 3 3 3 6 4 3 5 7 6 7 5 6 7 7
9 8 9 7 7 6 6 7 6 7 6 6 6 6 5 5 5 4 4 4 4 5 3 4 6 4 5 4 3 5 4 5 4 11 7 6 6 7 7 9 7 7 8
8 8 7 7 7 7 7 6 6 5 4 5 5 6 6 6 5 5 6 5 5 5 5 5 5 4 6 4 5 5 5 6 6 7 9 6 6 6 7 8 8 8 8
7 8 8 8 9 8 6 6 6 4 4 3 3 3 3 3 4 5 5 5 5 5 6 6 6 6 7 7 7 8 6 7 7 8 9 9 7 6 6 9 9 6 8
7 7 7 5 5 5 6 5 4 5 3 3 3 2 2 2 2 3 4 4 5 6 6 6 6 7 14 13 7 7 7 8 7 9 11 10 9 7 8 5 9 9 9
6 5 5 5 5 5 5 6 6 4 3 4 4 2 2 2 4 7 6 4 4 5 7 6 5 8 10 17 18 21 17 10 10 9 10 12 14 10 7 8 9 9 9
8 7 6 6 6 5 5 6 6 6 6 6 5 5 4 4 7 8 10 2 2 3 4 6 7 5 6 8 14 19 19 21 22 16 16 14 15 12 10 10 11 11 13
10 9 8 8 8 7 8 7 6 5 5 4 5 4 3 4 9 9 10 3 3 4 5 6 6 7 7 9 10 10 11 10 12 11 14 16 14 14 12 13 16 14 12
10 9 8 8 8 7 8 7 5 5 5 4 3 5 5 4 12 11 9 3 2 4 5 6 6 6 13 17 12 11 11 11 14 24 27 29 30 30 25 11 9 9 9
8 8 8 8 9 8 7 7 4 4 4 4 5 5 4 4 13 13 11 2 3 3 4 5 9 11 20 21 13 12 13 12 11 14 12 16 19 16 25 15 11 12 11
7 8 8 8 9 7 7 5 5 5 5 5 5 4 5 4 8 15 15 4 5 5 2 3 3 19 22 23 24 12 13 18 16 10 10 10 10 8 6 7 9 9 11
8 9 8 8 7 6 7 6 6 5 6 5 4 4 3 4 11 13 16 15 15 6 6 6 8 22 26 26 17 23 26 19 10 10 11 11 10 10 7 7 10 10 10
9 9 8 8 8 7 7 6 5 5 4 4 3 3 4 3 2 15 16 17 17 10 7 17 27 24 19 13 20 23 18 8 9 10 10 11 10 11 7 5 6 7 8
9 8 7 7 6 6 5 4 4 3 3 3 4 3 3 3 3 6 6 6 11 10 15 7 10 14 14 14 8 10 7 6 8 9 10 10 9 9 9 4 7 3 4
8 6 6 5 5 5 5 4 4 1 3 2 2 2 3 4 5 16 15 10 10 13 13 4 6 7 9 9 8 7 6 6 7 8 7 9 10 9 9 1 2 2 3
7 6 5 4 4 5 4 4 9 9 12 11 12 10 6 16 21 22 23 24 25 27 5 3 7 8 9 9 8 9 7 8 8 8 8 9 10 10 9 7 2 2 8
7 6 5 6 5 5 5 4 6 7 11 11 13 17 19 20 22 23 24 25 23 14 2 6 7 8 8 8 8 8 9 8 10 8 10 9 9 9 10 8 8 8 8
6 9 6 4 4 3 3 3 3 4 7 8 14 18 18 23 24 25 24 19 6 5 2 6 7 7 7 8 8 8 8 8 8 8 9 8 9 9 9 10 9 9 8
5 4 3 2 2 3 2 3 2 2 4 6 7 9 10 22 22 20 19 2 4 9 6 6 5 7 7 8 8 8 9 9 9 9 9 9 9 8 9 9 10 11 9
4 5 4 2 3 3 3 3 4 3 5 5 6 7 7 6 5 6 1 2 4 6 7 6 7 7 8 8 8 8 9 9 9 8 9 9 9 8 9 10 10 9 9
3 3 4 2 2 2 2 3 4 4 6 6 7 7 21 12 8 6 7 6 4 7 8 8 8 8 8 8 9 9 9 9 9 9 9 9 9 9 9 9 10 10 9
2 2 2 2 2 3 3 3 4 4 6 7 8 8 21 8 8 8 8 8 7 7 7 8 8 8 9 9 9 10 10 10 10 10 9 9 9 9 9 10 10 9 9
1 2 3 3 2 4 4 4 4 5 7 7 8 8 8 8 8 8 9 8 8 8 9 8 8 9 8 9 9 10 11 11 10 10 11 10 10 10 9 10 10 10 9
2 2 3 4 3 4 4 5 5 7 8 8 8 8 9 9 9 10 9 9 9 9 9 9 9 11 11 11 9 10 10 10 10 12 14 11 11 11 9 10 10 11 10
2 3 4 5 4 5 5 5 7 7 7 7 8 8 9 9 10 10 9 9 9 10 11 10 9 12 14 16 16 18 18 19 15 16 11 13 14 15 12 11 11 10 11
4 4 4 4 4 5 5 6 6 7 8 8 8 8 9 10 10 10 9 9 10 10 12 11 12 16 16 15 17 19 19 20 17 17 13 11 12 11 10 9 12 9 11
Wind_Direction
184 182 175 184 181 175 181 191 189 179 179 180 182 185 188 195 190 174 193 242 282 292 305 299 289 276 264 260 247 241 233 212 248 269 261 295 297 294 295 274 284 284 286
181 176 192 179 171 183 195 195 184 193 187 186 185 190 194 202 189 200 228 244 243 251 255 277 280 287 270 259 243 243 236 229 245 272 272 277 261 287 282 288 285 278 275
172 174 176 184 183 192 197 197 191 191 190 195 184 196 203 203 203 214 219 231 237 241 247 250 255 257 274 252 250 259 246 254 241 257 276 271 271 276 288 281 276 276 269
171 173 183 191 197 192 184 189 198 190 180 193 209 197 204 204 207 220 228 233 243 249 240 232 241 242 253 264 256 256 254 250 254 261 273 275 272 274 263 284 289 270 276
170 171 199 180 175 173 178 180 181 189 192 185 179 230 235 210 231 232 241 242 246 258 253 250 253 242 255 260 254 252 244 254 258 263 272 277 275 273 259 262 277 288 280
150 151 143 152 160 172 165 160 157 156 141 123 71 79 51 360 310 291 280 234 244 251 277 276 243 246 262 282 285 286 279 262 255 254 266 268 276 276 270 265 274 285 295
98 85 88 96 90 80 88 93 86 81 84 78 59 47 29 354 341 330 322 328 305 292 285 294 300 288 270 269 278 285 288 285 282 284 282 276 284 283 284 273 264 264 263
81 79 79 87 87 78 73 73 73 68 70 74 55 42 42 353 359 348 334 5 335 305 295 291 284 289 284 290 278 275 272 260 256 263 265 274 271 273 260 256 259 261 266
77 72 64 76 78 75 70 61 52 59 49 43 52 40 44 3 3 353 346 347 307 299 293 292 283 285 295 302 293 289 286 278 271 274 273 274 276 276 276 271 259 256 265
76 78 71 76 81 77 74 68 58 60 63 48 40 34 44 9 357 353 352 340 341 306 284 278 300 313 314 312 301 294 286 287 287 282 279 277 280 284 288 290 291 280 281
76 75 71 75 76 76 75 66 57 55 59 43 41 13 16 5 344 355 346 352 316 309 309 298 280 315 310 306 308 314 304 310 326 335 319 309 302 281 262 260 259 268 278
77 75 68 61 71 68 69 62 53 45 51 36 30 20 352 335 352 348 345 338 329 335 316 308 296 304 316 319 333 325 319 336 326 320 313 308 304 300 279 268 271 264 261
80 71 65 63 61 59 64 58 54 42 43 25 22 352 326 320 308 338 332 330 330 321 316 307 315 322 336 336 328 324 326 321 308 303 299 297 297 295 299 280 268 271 272
83 76 67 69 65 57 60 56 57 34 19 6 352 332 296 316 317 305 293 304 313 320 300 325 342 334 335 329 325 323 309 308 301 296 293 295 309 316 302 289 290 308 299
86 79 77 70 63 52 47 32 27 320 350 339 272 268 326 318 301 319 322 322 313 308 331 12 346 339 330 323 317 308 305 300 297 295 302 311 299 299 297 312 278 293 263
90 79 65 67 53 48 31 8 10 6 351 346 344 342 329 318 318 322 323 317 315 316 53 5 333 325 313 310 309 308 303 300 301 300 300 297 298 300 300 313 282 249 288
84 77 68 55 47 35 23 17 348 335 340 340 339 336 325 317 323 320 318 316 323 353 28 326 301 300 299 299 298 299 301 301 301 301 303 294 294 295 305 307 304 296 288
78 65 60 49 37 26 15 358 340 337 331 324 330 329 326 328 323 321 319 330 348 350 247 297 293 291 293 292 292 292 294 296 297 296 292 299 299 296 304 299 293 288 283
70 63 50 46 44 13 346 340 322 315 299 296 309 317 321 320 320 320 328 69 313 309 303 284 266 280 285 286 284 286 288 290 291 291 291 292 295 293 291 290 290 284 278
64 59 55 38 16 359 355 342 320 298 297 297 301 296 306 301 296 301 313 281 279 279 289 281 284 281 280 281 285 287 287 287 286 286 289 292 293 291 291 295 295 296 292
54 28 18 16 359 313 281 287 284 289 286 287 288 291 303 307 320 311 300 289 262 276 285 286 289 286 284 283 282 283 282 283 283 285 287 289 289 291 291 291 293 292 290
57 8 360 310 295 300 280 270 274 270 286 290 295 293 306 309 288 288 289 289 285 273 275 280 281 280 281 282 283 283 282 284 285 285 285 285 290 292 291 289 290 290 287
12 333 311 295 274 287 283 268 276 281 284 283 287 292 290 285 286 287 288 288 287 283 280 278 277 278 278 277 277 280 283 283 283 284 286 287 289 287 285 285 285 285 284
315 288 282 282 282 270 271 282 271 274 279 284 286 287 289 288 287 286 285 285 284 282 280 280 275 274 282 280 282 287 284 289 292 289 291 291 287 286 280 278 278 278 279
252 258 252 258 260 265 275 268 274 271 272 274 281 283 285 285 287 286 283 286 289 287 286 285 283 287 285 288 287 289 288 289 284 280 278 273 271 272 268 270 274 277 276
249 250 253 257 262 256 253 266 267 269 271 275 276 278 280 283 284 285 286 287 288 289 295 292 287 286 290 291 290 289 290 290 289 280 272 271 273 273 273 265 270 269 277